{"data":{"norad_id":57356,"intl_designator":"2023-099AE","name":"STARLINK-6355","alt_names":[],"object_type":"PAYLOAD","status":"ACTIVE","operator":null,"country":"US","launch_date":"2023-07-16","launch_site_code":"AFETR","launch_vehicle":null,"mission":null,"orbit_class":"UNKNOWN","rcs_meters":null,"size_class":null,"mass_kg":null,"dimensions":null,"purposes":["comms"],"wikipedia_slug":null,"has_3d_model":false,"image_url":null,"decayed_at":null,"tle_current":{"epoch":"2026-05-24T18:43:43.929984Z","epoch_age_seconds":100930,"freshness":"FRESH","line1":"1 57356U 23099AE  26144.78036956  .00001218  00000+0  53777-4 0  9994","line2":"2 57356  43.0003 172.1940 0001154 276.9362  83.1358 15.27579620157834","mean_motion":15.2757962,"eccentricity":0.0001154,"inclination_deg":43.0003,"raan_deg":172.194,"arg_perigee_deg":276.9362,"mean_anomaly_deg":83.1358,"bstar":5.3777e-5,"rev_number":15783,"period_min":94.266772163404,"perigee_km":482.2584528898,"apogee_km":483.84201490338,"semimajor_km":6861.1872338966,"source":"CELESTRAK","updated_at":"2026-05-25T13:38:18.291618Z"}}}